Pratt, KS

8:02 PM CDT on April 30, 2017 (GMT -0500)
Pratt Industrial

Weather History for KPTT - August, 2014

Change the Weather History Date:

Saturday, August 23, 2014

  Actual Average (KP28) Record (KP28)
Temperature  
Mean Temperature 81 °F -  
Max Temperature 98 °F 89 °F 112 °F (1922)
Min Temperature 64 °F 66 °F 48 °F (1896)
Cooling Degree Days 16    
Growing Degree Days 31 (Base 50)    
Moisture  
Dew Point 51 °F    
Average Humidity 36    
Maximum Humidity 68    
Minimum Humidity 17    
Precipitation  
Precipitation 0.00 in - - ()
Sea Level Pressure  
Sea Level Pressure 29.88 in    
Wind  
Wind Speed 14 mph (SSW)    
Max Wind Speed 31 mph    
Max Gust Speed 37 mph    
Visibility 10 miles    
Events      
Averages and records for this station are not official NWS values.
T = Trace of Precipitation, MM = Missing Value Source: NWS Daily Summary

Daily Weather History Graph

Daily Weather History Graph

Search for Another Location

Airport or City:

Trip Planner

Search our weather history database for the weather conditions in past years. The results will help you decide how hot, cold, wet, or windy it might be!

Date:

Astronomy

Aug. 23, 2014 Rise Set
Actual Time 6:57 AM CDT 8:16 PM CDT
Civil Twilight 6:30 AM CDT 8:44 PM CDT
Nautical Twilight 5:57 AM CDT 9:16 PM CDT
Astronomical Twilight 5:23 AM CDT 9:51 PM CDT
Moon 5:15 AM CDT (8/23) 7:02 PM CDT (8/23)
Length of Visible Light 14h 14m
Length of Day
13h 19m
Waning Crescent, 3% of the Moon is Illuminated
Aug 23
Waning Crescent
Aug 25
New
Sep 2
First Quarter
Sep 8
Full
Sep 15
Last Quarter

Hourly Weather History & Observations

Time (CDT) Temp. Heat Index Dew Point Humidity Pressure Visibility Wind Dir Wind Speed Gust Speed Precip Events Conditions
12:15 AM 82.4 °F 81.7 °F 55.4 °F 39% 29.91 in 10.0 mi South 15.0 mph 19.6 mph N/A   Clear
12:35 AM 82.4 °F 81.7 °F 55.4 °F 39% 29.91 in 10.0 mi South 16.1 mph - N/A   Clear
12:55 AM 80.6 °F 80.5 °F 55.4 °F 42% 29.91 in 10.0 mi South 15.0 mph - N/A   Clear
1:15 AM 80.6 °F 80.5 °F 55.4 °F 42% 29.91 in 10.0 mi South 12.7 mph 19.6 mph N/A   Clear
1:35 AM 78.8 °F - 55.4 °F 44% 29.91 in 10.0 mi South 12.7 mph - N/A   Clear
1:55 AM 78.8 °F - 55.4 °F 44% 29.92 in 10.0 mi South 12.7 mph - N/A   Clear
2:15 AM 77.0 °F - 55.4 °F 47% 29.92 in 10.0 mi South 12.7 mph - N/A   Clear
2:55 AM 77.0 °F - 53.6 °F 44% 29.92 in 10.0 mi South 13.8 mph - N/A   Scattered Clouds
3:15 AM 75.2 °F - 53.6 °F 47% 29.92 in 10.0 mi South 11.5 mph - N/A   Scattered Clouds
3:35 AM 73.4 °F - 53.6 °F 50% 29.92 in 10.0 mi South 11.5 mph - N/A   Clear
3:55 AM 71.6 °F - 53.6 °F 53% 29.91 in 10.0 mi SSW 8.1 mph - N/A   Clear
4:15 AM 71.6 °F - 53.6 °F 53% 29.91 in 10.0 mi SSW 6.9 mph - N/A   Clear
4:35 AM 69.8 °F - 53.6 °F 56% 29.91 in 10.0 mi SSW 8.1 mph - N/A   Clear
4:55 AM 68.0 °F - 53.6 °F 60% 29.90 in 10.0 mi South 9.2 mph - N/A   Clear
5:15 AM 68.0 °F - 55.4 °F 64% 29.90 in 10.0 mi South 6.9 mph - N/A   Clear
5:35 AM 68.0 °F - 53.6 °F 60% 29.91 in 10.0 mi SSW 6.9 mph - N/A   Clear
5:55 AM 68.0 °F - 53.6 °F 60% 29.91 in 10.0 mi SSW 9.2 mph - N/A   Clear
6:15 AM 66.2 °F - 53.6 °F 64% 29.91 in 10.0 mi South 8.1 mph - N/A   Clear
6:35 AM 66.2 °F - 53.6 °F 64% 29.91 in 10.0 mi South 6.9 mph - N/A   Clear
6:55 AM 64.4 °F - 53.6 °F 68% 29.92 in 10.0 mi SSW 10.4 mph - N/A   Clear
7:15 AM 66.2 °F - 53.6 °F 64% 29.92 in 10.0 mi SSW 8.1 mph - N/A   Clear
7:35 AM 68.0 °F - 53.6 °F 60% 29.92 in 10.0 mi SSW 9.2 mph - N/A   Clear
7:55 AM 69.8 °F - 53.6 °F 56% 29.92 in 10.0 mi South 8.1 mph - N/A   Clear
8:15 AM 71.6 °F - 53.6 °F 53% 29.91 in 10.0 mi South 8.1 mph - N/A   Clear
8:35 AM 73.4 °F - 53.6 °F 50% 29.91 in 10.0 mi SSW 9.2 mph - N/A   Clear
8:55 AM 77.0 °F - 55.4 °F 47% 29.91 in 10.0 mi SSW 10.4 mph - N/A   Clear
9:15 AM 78.8 °F - 55.4 °F 44% 29.91 in 10.0 mi SSW 10.4 mph - N/A   Clear
9:35 AM 82.4 °F 82.0 °F 57.2 °F 42% 29.91 in 10.0 mi SSW 10.4 mph - N/A   Clear
9:55 AM 82.4 °F 81.4 °F 53.6 °F 37% 29.91 in 10.0 mi South 12.7 mph - N/A   Clear
10:15 AM 86.0 °F - 51.8 °F 31% 29.92 in 10.0 mi SSW 13.8 mph 18.4 mph N/A   Clear
10:35 AM 86.0 °F 84.2 °F 53.6 °F 33% 29.92 in 10.0 mi SSW 11.5 mph - N/A   Clear
10:55 AM 87.8 °F 85.7 °F 53.6 °F 31% 29.92 in 10.0 mi SSW 11.5 mph - N/A   Clear
11:15 AM 87.8 °F 86.1 °F 55.4 °F 33% 29.92 in 10.0 mi SW 17.3 mph - N/A   Clear
11:35 AM 89.6 °F 87.7 °F 55.4 °F 31% 29.91 in 10.0 mi SSW 17.3 mph 20.7 mph N/A   Clear
11:55 AM 89.6 °F 87.7 °F 55.4 °F 31% 29.91 in 10.0 mi SSW 16.1 mph 20.7 mph N/A   Clear
12:15 PM 91.4 °F 89.4 °F 55.4 °F 29% 29.90 in 10.0 mi SSW 17.3 mph 20.7 mph N/A   Clear
12:35 PM 91.4 °F 89.1 °F 53.6 °F 28% 29.90 in 10.0 mi SSW 18.4 mph 24.2 mph N/A   Clear
12:55 PM 93.2 °F 90.8 °F 53.6 °F 26% 29.89 in 10.0 mi SSW 20.7 mph 26.5 mph N/A   Clear
1:15 PM 93.2 °F 90.8 °F 53.6 °F 26% 29.89 in 10.0 mi SSW 19.6 mph - N/A   Clear
1:35 PM 95.0 °F 92.7 °F 53.6 °F 25% 29.88 in 10.0 mi SSW 18.4 mph 24.2 mph N/A   Clear
1:55 PM 95.0 °F 92.7 °F 53.6 °F 25% 29.87 in 10.0 mi SSW 18.4 mph 29.9 mph N/A   Clear
2:15 PM 96.8 °F 94.4 °F 53.6 °F 23% 29.86 in 10.0 mi South 19.6 mph 25.3 mph N/A   Clear
2:35 PM 96.8 °F - 51.8 °F 22% 29.86 in 10.0 mi SSW 24.2 mph 29.9 mph N/A   Clear
2:55 PM 96.8 °F - 51.8 °F 22% 29.86 in 10.0 mi SSW 19.6 mph 29.9 mph N/A   Clear
3:15 PM 96.8 °F - 50.0 °F 20% 29.85 in 10.0 mi South 26.5 mph 34.5 mph N/A   Clear
3:35 PM 96.8 °F - 46.4 °F 18% 29.84 in 10.0 mi South 20.7 mph 33.4 mph N/A   Clear
3:55 PM 98.6 °F - 46.4 °F 17% 29.83 in 10.0 mi SSW 27.6 mph 36.8 mph N/A   Clear
4:15 PM 96.8 °F - 46.4 °F 18% 29.83 in 10.0 mi SSW 31.1 mph 36.8 mph N/A   Clear
4:35 PM 95.0 °F - 48.2 °F 20% 29.83 in 10.0 mi SSW 24.2 mph 36.8 mph N/A   Clear
4:55 PM 96.8 °F - 46.4 °F 18% 29.83 in 10.0 mi SSW 23.0 mph 32.2 mph N/A   Clear
5:15 PM 95.0 °F - 50.0 °F 22% 29.83 in 10.0 mi SSW 20.7 mph 35.7 mph N/A   Clear
5:35 PM 91.4 °F - 48.2 °F 23% 29.83 in 10.0 mi South 18.4 mph 26.5 mph N/A   Clear
5:55 PM 91.4 °F - 50.0 °F 24% 29.82 in 10.0 mi South 18.4 mph 32.2 mph N/A   Clear
6:15 PM 93.2 °F - 50.0 °F 23% 29.82 in 10.0 mi SSW 21.9 mph 31.1 mph N/A   Clear
6:35 PM 95.0 °F - 48.2 °F 20% 29.82 in 10.0 mi South 20.7 mph 26.5 mph N/A   Clear
7:15 PM 91.4 °F - 46.4 °F 21% 29.82 in 10.0 mi SSW 19.6 mph 28.8 mph N/A   Clear
7:35 PM 89.6 °F - 46.4 °F 22% 29.81 in 10.0 mi SSW 16.1 mph - N/A   Clear
7:55 PM 89.6 °F - 46.4 °F 22% 29.82 in 10.0 mi South 12.7 mph - N/A   Clear
8:15 PM 89.6 °F - 46.4 °F 22% 29.82 in 10.0 mi South 12.7 mph - N/A   Clear
8:35 PM 87.8 °F - 44.6 °F 22% 29.82 in 10.0 mi South 12.7 mph - N/A   Clear
8:55 PM 87.8 °F - 44.6 °F 22% 29.83 in 10.0 mi South 15.0 mph 19.6 mph N/A   Clear
9:15 PM 86.0 °F - 44.6 °F 23% 29.84 in 10.0 mi South 13.8 mph 18.4 mph N/A   Clear
9:35 PM 86.0 °F - 44.6 °F 23% 29.84 in 10.0 mi South 13.8 mph - N/A   Clear
9:55 PM 84.2 °F - 44.6 °F 25% 29.84 in 10.0 mi South 16.1 mph - N/A   Clear
10:15 PM 84.2 °F - 44.6 °F 25% 29.85 in 10.0 mi South 15.0 mph - N/A   Clear
10:35 PM 82.4 °F - 42.8 °F 25% 29.85 in 10.0 mi South 15.0 mph - N/A   Clear
10:55 PM 82.4 °F - 42.8 °F 25% 29.86 in 10.0 mi South 11.5 mph - N/A   Clear
11:15 PM 82.4 °F - 42.8 °F 25% 29.86 in 10.0 mi South 10.4 mph - N/A   Clear
11:35 PM 82.4 °F - 42.8 °F 25% 29.86 in 10.0 mi SSE 10.4 mph - N/A   Clear
11:55 PM 80.6 °F - 44.6 °F 28% 29.87 in 10.0 mi SSE 11.5 mph - N/A   Clear